This is the latest recevied weather packets stored in our database for station/object N4ZIQ. If no packets are shown the sender has not sent any weather packets the latest 10 day(s).
| Time | Temp. | Humidity | Pressure | Rain* | Wind** | Luminosity | Snow |
|---|---|---|---|---|---|---|---|
| 1777490166 | 30° C | 53% | 1014.5 hPa | 0 mm | - | 142 W/m² | - |
| 1777489843 | 30.56° C | 53% | 1014.6 hPa | 0 mm | - | 156 W/m² | - |
| 1777489545 | 30.56° C | 53% | 1014.6 hPa | 0 mm | - | 828 W/m² | - |
| 1777489273 | 30.56° C | 50% | 1014.6 hPa | 0 mm | - | 803 W/m² | - |
| 1777488943 | 30.56° C | 53% | 1014.7 hPa | 0 mm | - | 865 W/m² | - |
| 1777488643 | 30° C | 54% | 1014.8 hPa | 0 mm | - | 861 W/m² | - |
| 1777488352 | 30° C | 52% | 1014.9 hPa | 0 mm | - | 830 W/m² | - |
| 1777488043 | 30° C | 50% | 1015 hPa | 0 mm | - | 860 W/m² | - |
| 1777487743 | 30° C | 52% | 1015.1 hPa | 0 mm | - | 837 W/m² | - |
| 1777487458 | 30° C | 54% | 1015.2 hPa | 0 mm | - | 888 W/m² | - |
| 1777487143 | 30° C | 55% | 1015.2 hPa | 0 mm | - | 865 W/m² | - |
| 1777486843 | 30° C | 54% | 1015.3 hPa | 0 mm | - | 872 W/m² | - |
| 1777486549 | 28.89° C | 57% | 1015.4 hPa | 0 mm | - | 911 W/m² | - |
| 1777486244 | 28.89° C | 56% | 1015.6 hPa | 0 mm | - | 244 W/m² | - |
| 1777485946 | 29.44° C | 56% | 1015.6 hPa | 0 mm | - | 770 W/m² | - |
| 1777485665 | 29.44° C | 57% | 1015.6 hPa | 0 mm | - | 775 W/m² | - |
| 1777485344 | 29.44° C | 58% | 1015.6 hPa | 0 mm | - | 854 W/m² | - |
| 1777485043 | 28.89° C | 58% | 1015.7 hPa | 0 mm | - | 652 W/m² | - |
| 1777484752 | 28.89° C | 57% | 1015.8 hPa | 0 mm | - | 250 W/m² | - |
| 1777484444 | 28.89° C | 58% | 1015.9 hPa | 0 mm | - | 229 W/m² | - |
| 1777484144 | 30° C | 57% | 1015.9 hPa | 0 mm | - | 969 W/m² | - |
| 1777483848 | 29.44° C | 57% | 1016.1 hPa | 0 mm | - | 397 W/m² | - |
| 1777483544 | 30° C | 58% | 1016.1 hPa | 0 mm | - | 918 W/m² | - |
| 1777483243 | 28.89° C | 57% | 1016.1 hPa | 0 mm | - | 981 W/m² | - |
| 1777482959 | 28.89° C | 56% | 1016.3 hPa | 0 mm | - | 942 W/m² | - |
* Rain latest hour (hover to see other rain measurements)
** Current wind speed in m/s (hover to see current wind gust speed)